Date String (YYYY-MM-DD hh:mm:ss) UTC,Instrument flags,Ambient pressure (hPa),Sample flow (lpm),Bypass flow (lpm),Sample temperature (°C),Ambient temperature (°C),ASC tube jacket temperature (°C),LED temperature (°C),Box temperature (°C),Sample RH (%),Span deviation,Mass concentration (μg/m³),Mass concentration (μg/m³),Mass concentration (μg/m³)
DateTimeUTC,F1_M11,P_M11,Q1_M11,Q2_M11,T1_M11,T2_M11,T3_M11,T4_M11,T5_M11,U1_M11,ZSPAN_M11,X0_M11,X2_M11,X1_M11
2022-06-15 07:00:00,,0823.6,5.01,0.00,29.8,28.8,00.0,38.7,31.7,17.3,0000.0,0015.24,0005.21,0002.32
2022-06-15 07:01:00,,0823.7,5.02,0.00,29.8,28.8,00.0,38.7,31.7,17.3,0000.0,0014.76,0005.26,0002.31
2022-06-15 07:02:00,,0823.7,5.01,0.00,29.8,28.8,00.0,38.7,31.7,17.2,0000.0,0014.29,0005.21,0002.31
2022-06-15 07:03:00,,0823.7,5.00,0.00,29.8,28.8,00.0,38.7,31.7,17.2,0000.0,0013.94,0005.18,0002.30
2022-06-15 07:04:00,,0823.7,4.99,0.00,29.8,28.8,00.0,38.7,31.7,17.2,0000.0,0013.77,0005.16,0002.28
2022-06-15 07:05:00,,0823.7,5.00,0.00,29.8,28.8,00.0,38.7,31.7,17.2,0000.0,0013.85,0005.12,0002.27
2022-06-15 07:06:00,,0823.7,4.99,0.00,29.8,28.8,00.0,38.7,31.7,17.3,0000.0,0013.98,0005.10,0002.24
2022-06-15 07:07:00,,0823.7,5.00,0.00,29.8,28.8,00.0,38.7,31.7,17.3,0000.0,0013.76,0005.06,0002.24
2022-06-15 07:08:00,,0823.7,5.00,0.00,29.8,28.8,00.0,38.7,31.7,17.3,0000.0,0014.48,0005.12,0002.27
2022-06-15 07:09:00,,0823.7,5.01,0.00,29.8,28.8,00.0,38.7,31.7,17.3,0000.0,0014.79,0005.12,0002.29
2022-06-15 07:10:00,,0823.6,5.00,0.00,29.8,28.8,00.0,38.7,31.7,17.3,0000.0,0015.09,0005.12,0002.27
2022-06-15 07:11:00,,0823.6,5.00,0.00,29.8,28.8,00.0,38.7,31.7,17.2,0000.0,0015.77,0005.11,0002.29
2022-06-15 07:12:00,,0823.6,5.00,0.00,29.8,28.8,00.0,38.7,31.7,17.3,0000.0,0016.48,0005.10,0002.32
2022-06-15 07:13:00,,0823.6,5.01,0.00,29.8,28.8,00.0,38.7,31.7,17.2,0000.0,0016.85,0005.07,0002.32
2022-06-15 07:14:00,,0823.6,5.01,0.00,29.8,28.8,00.0,38.7,31.7,17.2,0000.0,0017.32,0005.10,0002.34
2022-06-15 07:15:00,,0823.6,4.98,0.00,29.8,28.8,00.0,38.7,31.7,17.2,0000.0,0017.39,0005.09,0002.35
2022-06-15 07:16:00,,0823.6,4.99,0.00,29.8,28.8,00.0,38.7,31.6,17.2,0000.0,0017.37,0005.09,0002.35
2022-06-15 07:17:00,,0823.6,5.00,0.00,29.8,28.8,00.0,38.7,31.6,17.2,0000.0,0016.45,0004.97,0002.36
2022-06-15 07:18:00,,0823.5,5.00,0.00,29.8,28.7,00.0,38.7,31.6,17.2,0000.0,0016.64,0004.99,0002.37
2022-06-15 07:19:00,,0823.5,5.01,0.00,29.8,28.7,00.0,38.7,31.6,17.2,0000.0,0016.73,0005.04,0002.38
2022-06-15 07:20:00,,0823.4,5.01,0.00,29.8,28.7,00.0,38.7,31.6,17.2,0000.0,0016.37,0005.11,0002.39
2022-06-15 07:21:00,,0823.5,5.00,0.00,29.7,28.7,00.0,38.7,31.6,17.2,0000.0,0016.67,0005.20,0002.43
2022-06-15 07:22:00,,0823.5,5.00,0.00,29.7,28.7,00.0,38.7,31.6,17.1,0000.0,0015.87,0005.30,0002.46
2022-06-15 07:23:00,,0823.5,4.99,0.00,29.7,28.7,00.0,38.7,31.6,17.1,0000.0,0015.22,0005.35,0002.48
2022-06-15 07:24:00,,0823.5,5.01,0.00,29.7,28.7,00.0,38.7,31.6,17.2,0000.0,0014.33,0005.31,0002.50
2022-06-15 07:25:00,,0823.5,5.00,0.00,29.7,28.7,00.0,38.7,31.5,17.2,0000.0,0013.89,0005.32,0002.53
2022-06-15 07:26:00,,0823.6,4.99,0.00,29.7,28.7,00.0,38.7,31.5,17.2,0000.0,0013.87,0005.29,0002.54
2022-06-15 07:27:00,,0823.5,5.00,0.00,29.7,28.7,00.0,38.7,31.5,17.2,0000.0,0014.84,0005.31,0002.54
2022-06-15 07:28:00,,0823.5,5.01,0.00,29.7,28.6,00.0,38.7,31.5,17.2,0000.0,0015.44,0005.40,0002.55
2022-06-15 07:29:00,,0823.5,4.99,0.00,29.7,28.6,00.0,38.7,31.5,17.2,0000.0,0015.59,0005.47,0002.57
2022-06-15 07:30:00,,0823.5,5.00,0.00,29.7,28.6,00.0,38.7,31.5,17.2,0000.0,0015.48,0005.47,0002.58
2022-06-15 07:31:00,,0823.5,4.99,0.00,29.7,28.6,00.0,38.7,31.5,17.3,0000.0,0015.42,0005.48,0002.57
2022-06-15 07:32:00,,0823.5,4.99,0.00,29.6,28.6,00.0,38.7,31.5,17.3,0000.0,0014.89,0005.43,0002.57
2022-06-15 07:33:00,,0823.5,5.00,0.00,29.7,28.6,00.0,38.7,31.5,17.3,0000.0,0015.36,0005.46,0002.58
2022-06-15 07:34:00,,0823.5,5.00,0.00,29.6,28.6,00.0,38.7,31.4,17.4,0000.0,0015.55,0005.47,0002.58
2022-06-15 07:35:00,,0823.5,5.00,0.00,29.6,28.5,00.0,38.6,31.4,17.4,0000.0,0016.87,0005.49,0002.58
2022-06-15 07:36:00,,0823.5,5.00,0.00,29.6,28.5,00.0,38.6,31.4,17.4,0000.0,0017.83,0005.53,0002.58
2022-06-15 07:37:00,,0823.5,4.99,0.00,29.6,28.5,00.0,38.6,31.4,17.5,0000.0,0018.66,0005.57,0002.60
2022-06-15 07:38:00,,0823.5,5.00,0.00,29.6,28.5,00.0,38.6,31.4,17.4,0000.0,0019.01,0005.56,0002.61
2022-06-15 07:39:00,,0823.5,5.01,0.00,29.6,28.5,00.0,38.6,31.4,17.5,0000.0,0018.74,0005.47,0002.63
2022-06-15 07:40:00,,0823.5,5.00,0.00,29.6,28.5,00.0,38.6,31.3,17.5,0000.0,0018.71,0005.47,0002.64
2022-06-15 07:41:00,,0823.4,4.99,0.00,29.5,28.5,00.0,38.6,31.3,17.5,0000.0,0018.78,0005.46,0002.66
2022-06-15 07:42:00,,0823.4,5.00,0.00,29.5,28.4,00.0,38.6,31.3,17.5,0000.0,0018.55,0005.41,0002.68
2022-06-15 07:43:00,,0823.4,5.01,0.00,29.5,28.4,00.0,38.6,31.3,17.6,0000.0,0019.17,0005.46,0002.70
2022-06-15 07:44:00,,0823.4,5.00,0.00,29.5,28.4,00.0,38.6,31.3,17.6,0000.0,0018.58,0005.41,0002.71
2022-06-15 07:45:00,,0823.4,5.00,0.00,29.5,28.4,00.0,38.5,31.3,17.6,0000.0,0018.16,0005.35,0002.72
2022-06-15 07:46:00,,0823.4,5.01,0.00,29.5,28.4,00.0,38.5,31.3,17.7,0000.0,0017.25,0005.41,0002.72
2022-06-15 07:47:00,,0823.4,5.00,0.00,29.5,28.4,00.0,38.5,31.3,17.7,0000.0,0016.11,0005.41,0002.74
2022-06-15 07:48:00,,0823.5,5.01,0.00,29.5,28.4,00.0,38.5,31.3,17.7,0000.0,0015.23,0005.42,0002.75
2022-06-15 07:49:00,,0823.5,5.00,0.00,29.5,28.4,00.0,38.5,31.3,17.7,0000.0,0013.86,0005.50,0002.76
2022-06-15 07:50:00,,0823.6,4.99,0.00,29.5,28.4,00.0,38.5,31.3,17.7,0000.0,0013.76,0005.59,0002.77
2022-06-15 07:51:00,,0823.5,5.00,0.00,29.5,28.4,00.0,38.5,31.3,17.7,0000.0,0013.67,0005.56,0002.79
2022-06-15 07:52:00,,0823.5,5.01,0.00,29.5,28.4,00.0,38.5,31.3,17.7,0000.0,0013.52,0005.54,0002.80
2022-06-15 07:53:00,,0823.5,5.01,0.00,29.5,28.4,00.0,38.5,31.3,17.7,0000.0,0013.63,0005.59,0002.80
2022-06-15 07:54:00,,0823.4,5.00,0.00,29.5,28.4,00.0,38.5,31.3,17.7,0000.0,0013.09,0005.53,0002.79
2022-06-15 07:55:00,,0823.4,4.99,0.00,29.5,28.4,00.0,38.5,31.3,17.7,0000.0,0013.17,0005.50,0002.78
2022-06-15 07:56:00,,0823.4,5.00,0.00,29.5,28.3,00.0,38.5,31.3,17.7,0000.0,0013.64,0005.59,0002.77
2022-06-15 07:57:00,,0823.4,5.00,0.00,29.5,28.3,00.0,38.5,31.3,17.7,0000.0,0013.87,0005.67,0002.78
2022-06-15 07:58:00,,0823.5,5.01,0.00,29.4,28.3,00.0,38.4,31.3,17.7,0000.0,0013.87,0005.63,0002.79
2022-06-15 07:59:00,,0823.5,5.01,0.00,29.4,28.3,00.0,38.4,31.2,17.7,0000.0,0014.36,0005.63,0002.79
